sat.trackr.live / text

‹ back to catalog

SHIJIAN-29B (SJ-29B)

NORAD 67403 · 2025-315C

PAYLOAD ACTIVE UNKNOWN

§ Identity

Operator
Country
PRC
Launch date
2025-12-30
Launch site
WSC
Launch vehicle
Mass (kg)
RCS (m²)

Purposes: comms

External: N2YO · Heavens-Above · Gunter

§ Orbital elements

Epoch: 2026-05-24T22:57:39.742272Z

Period
1,436.07 min
Inclination
3.3399°
Eccentricity
0.0007572
Mean motion
1.00273628 rev/d
Perigee alt
35,754.2 km
Apogee alt
35,818.0 km
Semi-major
42,164.2 km
B*
0.0000e+0
RAAN
95.6590°
Arg perigee
351.4949°
Mean anomaly
213.7257°
Rev number
145

§ Raw data

SHIJIAN-29B (SJ-29B)1 67403U 25315C   26144.95670998 -.00000076  00000+0  00000+0 0  99982 67403   3.3399  95.6590 0007572 351.4949 213.7257  1.00273628  1455

JSON: /api/v1/satellites/67403 · /tle

For live sub-satellite position, see the globe view (requires WebGL).

§ Visibility from observer

Set your observer location to see the next 7 days of passes ≥ 10°. The values pass through the URL so the page stays shareable.

No JS? Fill the form by hand. The geolocation button needs JavaScript.